ASTRA 3B

Last updated on Mon Oct 20 2025 00:02:46 GMT+0000 (Coordinated Universal Time)

1 36581U 10021A 25292.27191058 .00000136 00000+0 00000+0 0 9998 2 36581 0.8416 86.6834 0002835 112.0013 310.7525 1.00274999 56459
UTC large
Height (km)
Speed (km/s)
/
Latitude / Longitude
Inclination (degrees)
Orbital Period (minutes)
Azimuth
Elevation
Range (km)
Doppler Factor

Next 0 passes for location: London (51.5072 / 0.1276)

Sorry there are no passes over London.